EW5773 Weather Reports


Display with metric or nautical units.
time (UTC)temp
F
wind
direction
speed
MPH
gust
MPH
rain 1hr
in
rain 24hr
in
rain mn
in
humidity
%
barometer
mb
20260504201504 55 341 1.0 3.0 0.04 0.28 0.28 94 1010.9
20260504200005 55 341 1.0 3.0 0.03 0.27 0.27 93 1010.8
20260504194520 55 340 2.0 4.0 0.03 0.27 0.27 93 1010.7
20260504193019 55 333 1.0 3.0 0.02 0.26 0.26 93 1010.9
20260504191532 55 333 1.0 3.0 0.00 0.24 0.24 93 1011.1
20260504190108 55 333 0.0 3.0 0.00 0.24 0.24 93 1011.0
20260504184514 55 328 1.0 5.0 0.00 0.24 0.24 93 1010.9
20260504183027 56 323 3.0 8.0 0.00 0.24 0.24 93 1011.0
20260504181513 57 328 2.0 6.0 0.00 0.24 0.24 93 1010.9
20260504180007 57 319 1.0 5.0 0.00 0.24 0.24 93 1010.9
20260504174506 57 309 4.0 6.0 0.01 0.31 0.24 93 1010.7
20260504173005 57 302 4.0 7.0 0.02 0.31 0.24 93 1010.7
20260504171506 57 317 3.0 5.0 0.05 0.31 0.24 93 1010.6
20260504170110 57 19 2.0 5.0 0.06 0.31 0.24 93 1010.7
20260504081509 56 217 0.0 0.0 0.00 0.18 0.00 93 1012.0
20260504044522 53 205 0.0 2.0 0.00 0.21 0.00 92 1010.8
20260504043015 53 205 0.0 2.0 0.00 0.21 0.00 92 1010.9
20260504041519 54 205 0.0 1.0 0.00 0.21 0.00 92 1010.8
20260504040054 54 205 0.0 2.0 0.00 0.21 0.00 92 1010.8
20260504034506 53 205 0.0 0.0 0.00 0.22 0.00 92 1011.1
20260504033004 53 205 0.0 0.0 0.00 0.22 0.00 92 1011.2
20260504031605 53 205 0.0 1.0 0.00 0.22 0.00 92 1011.3
20260504030018 53 205 0.0 2.0 0.00 0.22 0.00 92 1011.3
20260504024505 53 205 0.0 2.0 0.00 0.24 0.00 92 1011.4
20260504023106 53 205 0.0 1.0 0.00 0.24 0.00 92 1011.3
20260504021518 53 205 0.0 2.0 0.00 0.24 0.00 92 1011.3
20260504020014 53 205 0.0 0.0 0.00 0.24 0.00 92 1011.3
20260504014531 53 205 1.0 3.0 0.00 0.26 0.00 91 1011.3
20260504013043 53 205 1.0 5.0 0.00 0.26 0.00 91 1011.1
20260504011502 53 205 0.0 3.0 0.00 0.26 0.00 91 1011.1
20260504010004 53 205 1.0 6.0 0.00 0.26 0.00 91 1011.0
20260504004627 53 115 1.0 4.0 0.00 0.26 0.00 91 1011.0
20260504003105 54 113 0.0 3.0 0.00 0.26 0.00 91 1010.9
20260504001517 54 112 0.0 6.0 0.00 0.26 0.00 91 1010.9
20260504000016 54 109 1.0 6.0 0.00 0.26 0.00 91 1011.2
20260503234530 53 92 2.0 6.0 0.00 0.26 0.00 91 1011.4
20260503233042 54 57 0.0 0.0 0.00 0.26 0.00 91 1011.5
20260503231512 54 55 0.0 0.0 0.00 0.26 0.00 91 1011.6
20260503230007 54 55 0.0 0.0 0.00 0.26 0.00 91 1011.6
20260503224505 54 55 0.0 0.0 0.00 0.26 0.00 91 1011.6
20260503223005 54 55 0.0 0.0 0.00 0.26 0.00 90 1011.6
20260503221504 54 54 0.0 0.0 0.00 0.26 0.00 90 1011.4
20260503220017 54 54 0.0 0.0 0.00 0.26 0.00 89 1011.4
20260503214517 54 54 0.0 3.0 0.00 0.26 0.26 89 1011.6
20260503213014 55 55 0.0 0.0 0.00 0.26 0.26 89 1011.4
20260503211512 55 56 0.0 0.0 0.00 0.26 0.26 89 1011.7
20260503210011 55 56 0.0 2.0 0.00 0.26 0.26 89 1011.6
20260503204545 56 56 1.0 4.0 0.00 0.26 0.26 88 1011.4
20260503203004 56 55 0.0 2.0 0.00 0.26 0.26 88 1011.1